www.pogodaiklimat.ru

Погода и климат >> Архив погоды >> Россия >> Магаданская область >> Мыс Братьев


ПОГОДА на Мысе Братьев

  • Прогноз погоды на Мысе Братьев
  • Монитор погоды на Мысе Братьев
  • Климат города

АРХИВ ПОГОДЫ на Мысе Братьев

Время (UTC), дата Ветер
(напр.,м/с)
 
Видим.   Явления Облачность Т
(С)
Тd
(С)
f
(%)
Тe
(С)
Тes
(С)
Комфортность P
(гПа)
Po
(гПа)
Тmin
(С)
Tmax
(С)
R
(мм)
R24
(мм)
S
(см)
15 23.04 штиль 0 50 км ясно -1.0 -5.4 72 -2 -2 1022.3 1020.6
18 23.04 СВ 5 50 км ясно -0.4 -4.3 75 -6 -6 1022.6 1020.9
21 23.04 В 4 50 км ясно +1.2 -4.0 68 -4 -2 1023.1 1021.5 -1.1 0
00 24.04 В 2 50 км ясно +4.4 -4.5 52 +2 +12 опасность
простуды
1022.3 1020.7
03 24.04 В 1 50 км ясно +4.5 -3.9 54 +4 +16 опасность
простуды
1021.7 1020.1
06 24.04 ЮВ 1 50 км ясно +5.4 -5.2 46 +5 +10 1020.8 1019.2
09 24.04 З 2 50 км ясно +1.6 -6.4 55 -1 -1 1020.1 1018.5 +5.7
12 24.04 СЗ 2 50 км ясно +1.1 -5.2 63 -2 -2 1019.7 1018.1
15 24.04 З 2 50 км ясно +0.3 -5.8 64 -3 -3 1018.6 1016.9
18 24.04 штиль 0 50 км ясно +1.0 -4.7 66 0 0 1018.5 1016.8
21 24.04 штиль 0 50 км ясно +1.6 -1.9 78 +1 +5 1017.7 1016.0 0
00 25.04 ЮЗ 4 50 км ясно +5.8 -3.8 50 +3 +9 1016.9 1015.3
03 25.04 ЮЗ 5 50 км ясно +5.5 -3.9 51 +2 +7 1015.8 1014.2
06 25.04 ЮВ 2 50 км ясно +2.6 -1.1 77 -0 +4 1015.0 1013.4
09 25.04 штиль 0 50 км ясно +0.3 -1.3 89 -1 -1 1014.2 1012.5 +6.3
12 25.04 С 1 50 км ясно -1.6 -4.5 81 -4 -4 1013.3 1011.7
15 25.04 штиль 0 50 км ясно -1.6 -3.7 86 -3 -3 1012.3 1010.7
18 25.04 штиль 0 50 км ясно -3.3 -4.1 94 -5 -5 1011.8 1010.1
21 25.04 ЮВ 1 500 м туман ясно -2.9 -3.4 96 -5 -2 1011.5 1009.8 -4.3 0
00 26.04 В 2 2000 м дымка {туман} ясно -1.9 -2.6 95 -6 +4 1011.1 1009.4
03 26.04 ЮВ 2 10 км дымка 3/0
[Ac trans]
-1.4 -2.6 92 -5 +3 1010.7 1009.1
06 26.04 ЮВ 2 4000 м туман 4/4 600 м
[St]
-1.7 -2.4 95 -6 -3 1010.4 1008.8
09 26.04 ЮВ 1 200 м туман ?/? -3.0 -3.3 98 -5 -5 1010.5 1008.8 -1.0
12 26.04 СЗ 1 200 м туман ?/? -3.9 -4.1 99 -6 -6 1010.3 1008.7
15 26.04 штиль 0 200 м туман ?/? -5.0 -5.2 98 -6 -6 1009.2 1007.6
18 26.04 Ю 1 500 м туман ?/? -4.8 -5.1 98 -7 -7 1008.7 1007.0
21 26.04 штиль 0 500 м туман 8/8 600 м
[St]
-4.3 -4.6 98 -6 -5 1008.0 1006.3 -5.1 0
00 27.04 ЮВ 2 2000 м дымка {туман} 6/6 600 м
[St]
-2.9 -3.1 99 -7 -3 1007.1 1005.5
03 27.04 Ю 3 10 км дымка 6/6 600 м
[St]
-2.4 -3.5 92 -8 -4 1006.4 1004.7
06 27.04 В 1 1000 м дымка 8/8 600 м
[St]
-3.1 -3.6 96 -6 -5 1005.8 1004.2
09 27.04 В 3 50 км дымка 3/3 1000 м
[Sc]
-1.2 -2.1 94 -6 -6 1004.9 1003.2 -0.2
12 27.04 СВ 3
{11}
50 км ясно -2.6 -4.4 87 -8 -8 1004.6 1002.9
15 27.04 С 5
{12}
50 км ясно -1.0 -5.0 74 -7 -7 1002.9 1001.2
18 27.04 СВ 8-12
{16}
50 км ясно -0.9 -4.6 76 -8 -8 1001.1 999.5
21 27.04 СВ 13-22
{22}
50 км 4/4 1000 м
[Sc]
-0.6 -4.3 76 -10 -10 999.9 998.3 -2.7 0
00 28.04 СВ 10-15
{22}
50 км 5/5 1000 м
[Sc]
+1.4 -4.2 66 -6 -6 998.2 996.6
03 28.04 СВ 12-18
{23}
50 км 6/4 1000 м
[Sc Ac lent Ci fib]
+1.3 -5.1 62 -7 -7 996.1 994.5
06 28.04 СВ 10-15
{22}
50 км 8/6 600 м
[Cb cap Ac trans]
+0.9 -4.9 65 -7 -7 995.0 993.4
09 28.04 СВ 16-23
{23}
20 км 10/10 300 м
[Cb cap]
+0.4 -5.0 67 -9 -9 994.5 992.9 +2.4
12 28.04 СВ 14-23
{24}
20 км 10/10 300 м
[Cb cap]
+0.6 -4.3 70 -8 -8 994.9 993.3
15 28.04 СВ 14-22
{24}
20 км 10/10 300 м
[Cb cap]
+0.6 -3.6 73 -8 -8 994.8 993.2
18 28.04 СВ 16-22
{23}
20 км 10/8 300 м
[Cb cap Ac As]
+0.5 -3.0 77 -9 -9 995.6 994.0
21 28.04 СВ 15-21
{25}
20 км 8/8 300 м
[Cb cap]
+1.0 -2.9 75 -8 -8 997.1 995.5 +0.3 0
00 29.04 СВ 14-20
{22}
20 км 9/9 300 м
[Cb cap]
+2.0 -3.3 68 -6 -6 998.9 997.3
03 29.04 СВ 9-15
{20}
50 км 8/5 1000 м
[Sc Ac lent Ci fib]
+3.4 -3.5 61 -3 -2 999.9 998.4
06 29.04 СВ 9-14
{17}
50 км 6/4 1000 м
[Sc Ac lent Ci fib]
+2.6 -4.7 59 -4 -4 1001.7 1000.1
09 29.04 СВ 5
{17}
50 км 5/3 1000 м
[Sc Ci fib]
+0.8 -4.7 67 -5 -5 1004.2 1002.6 +3.4
12 29.04 С 6
{12}
50 км 3/0
[Ci fib]
-0.4 -6.1 65 -7 -7 1006.0 1004.4
15 29.04 С 4 50 км ясно -1.6 -6.2 71 -7 -7 1007.1 1005.4
18 29.04 С 5 50 км ясно -1.6 -5.9 72 -8 -8 1008.4 1006.7
21 29.04 СВ 4 50 км 4/0
[Ci]
+3.0 -5.6 53 -1 +1 1009.5 1007.9 -2.6 0
00 30.04 В 5 50 км ясно +3.2 -3.9 60 -2 +4 1010.3 1008.7
03 30.04 В 5 50 км ясно +3.1 -2.6 66 -2 +4 1010.7 1009.1
06 30.04 В 4 50 км ясно +2.7 -2.7 68 -2 +1 1011.1 1009.5
09 30.04 В 2 50 км 3/0
[Ci fib]
+1.1 -3.9 69 -2 -2 1012.1 1010.5 +3.5

 

Местоположение метеостанции Мыс Братьев (Магаданская область, Россия): широта 59.10 долгота 153.30 высота над уровнем моря 13 м.

В архиве по умолчанию представлена погода на Мысе Братьев за последнюю неделю. Архивные данные за месяц целиком и за предыдущие месяцы, начиная с января 2011 года, Вы можете получить, выбрав интересующий диапазон дат из раскрывающегося списка и нажав кнопку "Ввод!".

Внимание! Время в таблицах - всемирное. Для получения местного времени необходимо прибавить поправку, которая на Мысе Братьев равна 11 ч.

Смотрите также архив погоды в соседних городах и на ближайших метеорологических станциях:

Погода в Брохово (Магаданская область, Россия) (80 км)
Погода на Мысе Алевина (Магаданская область, Россия) (119 км)
Погода в Оле (Магаданская область, Россия) (130 км)
Погода в Магадане (Магаданская область, Россия) (156 км)
Погода в Палатке (Магаданская область, Россия) (175 км)
Погода в Армани (Магаданская область, Россия) (192 км)
Погода в Мадауне (Магаданская область, Россия) (221 км)
Погода в Шелихова (Магаданская область, Россия) (228 км)
Погода в Талае (Магаданская область, Россия) (232 км)
Погода на Остров Спафарьева (Магаданская область, Россия) (245 км)

Пояснения к столбцам:

Ветер - указаны скорость ветра в м/с - средняя за 10 мин, порывы в срок и между сроками (в фигурных скобках) и направление, откуда дует ветер: С - северный, СВ - северо-восточный, В - восточный, ЮВ - юго-восточный, Ю - южный, ЮЗ - юго-западный, З - западный, СЗ - северо-западный.
Видимость - горизонтальная дальность видимости в метрах или километрах. При видимости от 1 до 10 км при отсутствии осадков обычно наблюдается дымка, при ухудшении видимости до 1 км и менее - туман. В сухую погоду видимость может ухудшаться дымом, пылью или мглою.
Явления - указаны атмосферные явления, наблюдавшиеся в срок или в последний час перед сроком; фигурными скобками обозначены явления, наблюдавшиеся между сроками (за 1-3 часа до срока); квадратными скобками обозначены град или гололедные отложения с указанием их диаметра в мм.
Облачность - указаны через наклонную черту общая и нижняя облачность в баллах и высота нижней границы облаков в метрах; квадратными скобками обозначены формы облаков: Ci - перистые, Cs - перисто-слоистые, Cc - перисто-кучевые, Ac - высококучевые, As - высокослоистые, Sc - слоисто-кучевые, Ns - слоисто-дождевые, Cu - кучевые, Cb - кучево-дождевые. Подробнее классификацию облаков см. в Атласе облаков (PDF).
T - Температура воздуха - температура, измеренная на высоте 2 м над землей.
Td - Температура точки росы - температура, при понижении до которой содержащийся в воздухе водяной пар достигнет насыщения.
f - Относительная влажность воздуха - влажноcть воздуха, измеренная на высоте 2 м над землей.
Te - Эффективная температура - температура, которую ощущает одетый по сезону человек в тени. Характеристика душности погоды. При расчете учитывается влияние влажности воздуха и скорости ветра на теплоощущения человека.
Tes - Эффективная температура на солнце - температура, которую ощущает человек, с поправкой на солнечный нагрев. Характеристика знойности погоды. Зависит от высоты солнца над горизонтом, облачности и скорости ветра. Ночью, в пасмурную погоду, а также при ветре 12 м/с и более поправка равна нулю.
P - Атмосферное давление - приведенное к уровню моря атмосферное давление.
Po - Атмосферное давление - измеренное на уровне метеостанции атмосферное давление.
Tmin - Минимальная температура - минимум температуры воздуха на высоте 2 м над землей.
Tmax - Максимальная температура - максимум температуры воздуха на высоте 2 м над землей.
R - Количество осадков - Количество выпавших осадков за период времени, мм. При наведении курсора мыши на число - период времени, за который выпало указанное количество осадков.
R24 - Количество осадков - Количество выпавших осадков за 24 часа, мм.
S - Снежный покров - Высота снежного покрова, см. При наведении курсора мыши на число - состояние снежного покрова и степень покрытия местности в баллах.